Weather in Novoye

Russia / Jewish Autonomous Oblast     47°48′34″N   132°20′29″E
temp.,
°C
wind,
m/s
gust,
m/s
humid.,
%
clouds,
%
prec.,
mm/h
press.,
hPa
HPBL,
m
18 april, sun
sun1801:00+4n11825 0.0 101210
04:00+3ese00835 0.0 101210
07:00+3ene11845 0.0 101210
10:00+8nnw12645 0.0 1012481
13:00+12n344637 0.0 10101647
16:00+15nnw45365 0.0 10071997
19:00+15nnw123612 0.0 1006183
22:00+11nnw374728 0.0 1006173
19 april, mon
mon1901:00+9nnw36565 0.0 100599
04:00+7nne11673 0.0 100512
07:00+6nw22690 0.0 100421
10:00+12nw46420 0.0 1003824
13:00+17nw68292 0.0 10012026
16:00+19nw8122490 0.0 9992861
19:00+12nw111345100 0.0 10021134
22:00+7nw1117320 0.0 10051316
20 april, tue
tue2001:00+3nw1221300 0.0 10091394
04:00+1nw1018370 0.0 10111353
07:000nw1020300 0.0 10131438
10:00+3nw1223250 0.0 10122488
13:00+6nw1419180 0.0 10132377
16:00+8nw1115170 0.0 10132146
19:00+8nw813190 0.0 10151818
22:00+5wnw411290 0.0 1018233
21 april, wed
wed2101:00+3w49330 0.0 1018142
04:00+3w47330 0.0 1018109
07:00+3wsw35370 0.0 102074
10:00+11wsw34260 0.0 1020421
13:00+17wsw44200 0.0 10191040
16:00+20wsw33180 0.0 10171503
19:00+19s22220 0.0 101719
22:00+14se3328100 0.0 101826
22 april, thu
thu2201:00+12se463451 0.0 101974
04:00+10se463980 0.0 101971
07:00+9e48450 0.0 1020135
10:00+17se58265 0.0 1020694
13:00+22s562299 0.0 10191316
16:00+24ssw4519100 0.0 10171756
19:00+22sw2223100 0.0 101722
22:00+18wnw1229100 0.0 101811